Location: Lenham
(51.2333°N, 0.7167°E)
Time: 14:54:03
(UTC+00:00)

Cosmos 1777 Rocket - Pass Details

Date: 11 December 2025
Orbit: 753 x 772 km, 74.0° (Epoch: 21 April)

Event Time Altitude Azimuth Distance (km) Brightness Sun altitude
Rises 16:37:38 0° 182° (S) 3,230 7.7 -7.2°
Reaches altitude 10° 16:40:05 10° 176° (S) 2,306 6.8 -7.5°
Maximum altitude 16:45:01 44° 106° (ESE) 1,053 4.4 -8.2°
Drops below altitude 10° 16:49:59 10° 35° (NE) 2,310 6.0 -8.9°
Enters shadow 16:50:42 - 33° (NNE) 2,581 6.2 -9.0°
